| time (UTC) | temp F | wind direction | speed MPH | gust MPH | rain 1hr in | rain 24hr in | rain mn in | humidity % | barometer mb |
| 20260831194503 | 78 | 174 | 1.0 | 4.0 | 0.00 | 0.00 | 0.00 | 32 | 1011.2 |
| 20260831193101 | 78 | 211 | 1.0 | 5.0 | 0.00 | 0.00 | 0.00 | 34 | 1011.2 |
| 20260831191603 | 77 | 298 | 1.0 | 6.0 | 0.00 | 0.00 | 0.00 | 36 | 1011.3 |
| 20260831190107 | 76 | 326 | 1.0 | 6.0 | 0.00 | 0.00 | 0.00 | 37 | 1011.5 |
| 20260831184558 | 77 | 201 | 2.0 | 5.0 | 0.00 | 0.00 | 0.00 | 35 | 1011.7 |
| 20260831183054 | 76 | 190 | 2.0 | 5.0 | 0.00 | 0.00 | 0.00 | 34 | 1011.6 |
| 20260831181554 | 75 | 175 | 2.0 | 5.0 | 0.00 | 0.00 | 0.00 | 37 | 1011.6 |
| 20260831180050 | 74 | 284 | 1.0 | 8.0 | 0.00 | 0.00 | 0.00 | 37 | 1011.5 |
| 20260831174552 | 74 | 92 | 3.0 | 8.0 | 0.00 | 0.00 | 0.00 | 36 | 1011.5 |
| 20260831173101 | 73 | 190 | 2.0 | 7.0 | 0.00 | 0.00 | 0.00 | 37 | 1011.4 |
| 20260831171541 | 72 | 279 | 2.0 | 7.0 | 0.00 | 0.00 | 0.00 | 36 | 1011.1 |
| 20260831170038 | 71 | 240 | 1.0 | 6.0 | 0.00 | 0.00 | 0.00 | 37 | 1011.0 |
| 20260831164545 | 70 | 233 | 2.0 | 5.0 | 0.00 | 0.00 | 0.00 | 39 | 1011.0 |
| 20260831163033 | 69 | 200 | 2.0 | 7.0 | 0.00 | 0.00 | 0.00 | 38 | 1010.8 |
| 20260831161529 | 68 | 185 | 1.0 | 5.0 | 0.00 | 0.00 | 0.00 | 42 | 1010.6 |
| 20260831160031 | 67 | 210 | 2.0 | 7.0 | 0.00 | 0.00 | 0.00 | 44 | 1010.5 |
| 20260831154525 | 67 | 169 | 2.0 | 6.0 | 0.00 | 0.00 | 0.00 | 43 | 1010.5 |
| 20260831153024 | 65 | 227 | 2.0 | 7.0 | 0.00 | 0.00 | 0.00 | 43 | 1010.4 |
| 20260831151519 | 65 | 225 | 3.0 | 5.0 | 0.00 | 0.00 | 0.00 | 43 | 1010.4 |
| 20260831150015 | 64 | 205 | 2.0 | 5.0 | 0.00 | 0.00 | 0.00 | 42 | 1010.2 |
| 20260831144512 | 63 | 238 | 3.0 | 7.0 | 0.00 | 0.00 | 0.00 | 41 | 1010.0 |
| 20260831143010 | 62 | 201 | 3.0 | 5.0 | 0.00 | 0.00 | 0.00 | 41 | 1009.7 |
| 20260831141508 | 61 | 180 | 3.0 | 7.0 | 0.00 | 0.00 | 0.00 | 39 | 1009.5 |
| 20260831140105 | 61 | 207 | 3.0 | 8.0 | 0.00 | 0.00 | 0.00 | 34 | 1009.5 |
| 20260831134504 | 60 | 236 | 3.0 | 7.0 | 0.00 | 0.00 | 0.00 | 27 | 1009.2 |
| 20260831133101 | 60 | 222 | 3.0 | 7.0 | 0.00 | 0.00 | 0.00 | 28 | 1009.0 |
| 20260831131558 | 60 | 237 | 4.0 | 7.0 | 0.00 | 0.00 | 0.00 | 25 | 1008.8 |
| 20260831130056 | 61 | 230 | 4.0 | 7.0 | 0.00 | 0.00 | 0.00 | 30 | 1008.7 |
| 20260831124604 | 61 | 202 | 3.0 | 7.0 | 0.00 | 0.00 | 0.00 | 27 | 1008.5 |
| 20260831123055 | 61 | 194 | 3.0 | 8.0 | 0.00 | 0.00 | 0.00 | 27 | 1008.5 |
| 20260831121552 | 61 | 232 | 3.0 | 8.0 | 0.00 | 0.00 | 0.00 | 30 | 1008.3 |
| 20260831120051 | 61 | 254 | 4.0 | 8.0 | 0.00 | 0.00 | 0.00 | 35 | 1008.3 |
| 20260831114553 | 61 | 235 | 4.0 | 8.0 | 0.00 | 0.00 | 0.00 | 37 | 1008.4 |
| 20260831113048 | 61 | 229 | 4.0 | 8.0 | 0.00 | 0.00 | 0.00 | 40 | 1008.4 |
| 20260831111547 | 61 | 235 | 4.0 | 9.0 | 0.00 | 0.00 | 0.00 | 45 | 1008.5 |
| 20260831110045 | 62 | 194 | 4.0 | 10.0 | 0.00 | 0.00 | 0.00 | 47 | 1008.4 |
| 20260831104600 | 62 | 219 | 5.0 | 9.0 | 0.00 | 0.00 | 0.00 | 47 | 1008.4 |
| 20260831103040 | 62 | 233 | 4.0 | 10.0 | 0.00 | 0.00 | 0.00 | 44 | 1008.6 |
| 20260831101539 | 62 | 220 | 4.0 | 9.0 | 0.00 | 0.00 | 0.00 | 39 | 1008.6 |
| 20260831100042 | 62 | 235 | 4.0 | 10.0 | 0.00 | 0.00 | 0.00 | 33 | 1008.7 |
| 20260831094533 | 62 | 225 | 5.0 | 11.0 | 0.00 | 0.00 | 0.00 | 26 | 1008.7 |
| 20260831093038 | 63 | 224 | 5.0 | 10.0 | 0.00 | 0.00 | 0.00 | 29 | 1008.7 |
| 20260831091529 | 63 | 219 | 4.0 | 8.0 | 0.00 | 0.00 | 0.00 | 25 | 1008.8 |
| 20260831090027 | 63 | 238 | 4.0 | 10.0 | 0.00 | 0.00 | 0.00 | 28 | 1008.9 |
| 20260831084524 | 63 | 232 | 4.0 | 8.0 | 0.00 | 0.00 | 0.00 | 24 | 1009.0 |
| 20260831083037 | 63 | 238 | 4.0 | 9.0 | 0.00 | 0.00 | 0.00 | 22 | 1009.2 |
| 20260831081529 | 63 | 225 | 3.0 | 10.0 | 0.00 | 0.00 | 0.00 | 23 | 1009.4 |
| 20260831080025 | 63 | 227 | 3.0 | 7.0 | 0.00 | 0.00 | 0.00 | 26 | 1009.3 |
| 20260831074519 | 63 | 236 | 4.0 | 7.0 | 0.00 | 0.00 | 0.00 | 27 | 1009.5 |
| 20260831073014 | 63 | 209 | 4.0 | 7.0 | 0.00 | 0.00 | 0.00 | 29 | 1009.4 |
| 20260831071524 | 63 | 221 | 3.0 | 6.0 | 0.00 | 0.00 | 0.00 | 31 | 1009.5 |
| 20260831070020 | 63 | 230 | 3.0 | 7.0 | 0.00 | 0.00 | 0.00 | 31 | 1009.7 |
| 20260831064512 | 64 | 230 | 3.0 | 6.0 | 0.00 | 0.00 | 0.00 | 31 | 1009.8 |
| 20260831063009 | 64 | 234 | 3.0 | 6.0 | 0.00 | 0.00 | 0.00 | 32 | 1009.9 |
| 20260831061508 | 64 | 221 | 3.0 | 8.0 | 0.00 | 0.00 | 0.00 | 33 | 1009.8 |
| 20260831060008 | 64 | 249 | 3.0 | 7.0 | 0.00 | 0.00 | 0.00 | 33 | 1009.9 |
| 20260831054508 | 64 | 213 | 3.0 | 6.0 | 0.00 | 0.00 | 0.00 | 34 | 1010.0 |
| 20260831053007 | 64 | 224 | 3.0 | 5.0 | 0.00 | 0.00 | 0.00 | 34 | 1010.1 |
| 20260831051506 | 64 | 214 | 2.0 | 5.0 | 0.00 | 0.00 | 0.00 | 34 | 1010.0 |
| 20260831050005 | 64 | 233 | 3.0 | 5.0 | 0.00 | 0.00 | 0.00 | 34 | 1010.0 |
| 20260831044504 | 64 | 235 | 2.0 | 7.0 | 0.00 | 0.00 | 0.00 | 34 | 1010.0 |
| 20260831043007 | 64 | 250 | 2.0 | 5.0 | 0.00 | 0.00 | 0.00 | 34 | 1009.8 |
| 20260831041508 | 65 | 242 | 3.0 | 7.0 | 0.00 | 0.00 | 0.00 | 32 | 1009.6 |
| 20260831040003 | 65 | 243 | 3.0 | 7.0 | 0.00 | 0.00 | 0.00 | 33 | 1009.5 |
| 20260831034502 | 65 | 215 | 3.0 | 6.0 | 0.00 | 0.00 | 0.00 | 33 | 1009.3 |
| 20260831033003 | 65 | 210 | 3.0 | 5.0 | 0.00 | 0.00 | 0.00 | 35 | 1009.1 |
| 20260831031604 | 65 | 240 | 2.0 | 7.0 | 0.00 | 0.00 | 0.00 | 37 | 1008.8 |
| 20260831030105 | 66 | 225 | 3.0 | 6.0 | 0.00 | 0.00 | 0.00 | 37 | 1008.6 |
| 20260831024617 | 66 | 234 | 3.0 | 7.0 | 0.00 | 0.00 | 0.00 | 35 | 1008.6 |
| 20260831023057 | 67 | 229 | 3.0 | 6.0 | 0.00 | 0.00 | 0.00 | 35 | 1008.5 |
| 20260831021558 | 68 | 240 | 4.0 | 7.0 | 0.00 | 0.00 | 0.00 | 35 | 1008.5 |
| 20260831020113 | 69 | 233 | 3.0 | 6.0 | 0.00 | 0.00 | 0.00 | 35 | 1008.5 |
| 20260831014609 | 70 | 221 | 3.0 | 6.0 | 0.00 | 0.00 | 0.00 | 34 | 1008.5 |
| 20260831013056 | 71 | 202 | 3.0 | 7.0 | 0.00 | 0.00 | 0.00 | 34 | 1008.5 |
| 20260831011604 | 72 | 183 | 2.0 | 6.0 | 0.00 | 0.00 | 0.00 | 33 | 1008.3 |
| 20260831010053 | 73 | 221 | 3.0 | 6.0 | 0.00 | 0.00 | 0.00 | 34 | 1008.2 |
| 20260831004553 | 73 | 217 | 3.0 | 9.0 | 0.00 | 0.00 | 0.00 | 34 | 1008.4 |
| 20260831003052 | 75 | 211 | 3.0 | 9.0 | 0.00 | 0.00 | 0.00 | 32 | 1008.3 |
| 20260831001556 | 77 | 222 | 4.0 | 6.0 | 0.00 | 0.00 | 0.00 | 32 | 1008.6 |
| 20260831000051 | 77 | 148 | 3.0 | 8.0 | 0.00 | 0.00 | 0.00 | 33 | 1008.6 |
| 20260830234609 | 78 | 242 | 4.0 | 9.0 | 0.00 | 0.00 | 0.00 | 34 | 1008.5 |
| 20260830233050 | 78 | 148 | 3.0 | 9.0 | 0.00 | 0.00 | 0.00 | 34 | 1008.5 |
| 20260830231551 | 79 | 159 | 4.0 | 9.0 | 0.00 | 0.00 | 0.00 | 34 | 1008.5 |
| 20260830230050 | 79 | 167 | 3.0 | 7.0 | 0.00 | 0.00 | 0.00 | 33 | 1008.7 |
| 20260830224550 | 80 | 271 | 4.0 | 9.0 | 0.00 | 0.00 | 0.00 | 33 | 1008.7 |
| 20260830223046 | 81 | 236 | 3.0 | 7.0 | 0.00 | 0.00 | 0.00 | 32 | 1008.9 |
| 20260830221547 | 80 | 232 | 3.0 | 8.0 | 0.00 | 0.00 | 0.00 | 33 | 1009.1 |
| 20260830220046 | 81 | 153 | 3.0 | 7.0 | 0.00 | 0.00 | 0.00 | 33 | 1009.3 |
| 20260830214553 | 81 | 244 | 3.0 | 8.0 | 0.00 | 0.00 | 0.00 | 33 | 1009.4 |
| 20260830213045 | 81 | 210 | 2.0 | 5.0 | 0.00 | 0.00 | 0.00 | 34 | 1009.8 |
| 20260830211545 | 82 | 256 | 3.0 | 7.0 | 0.00 | 0.00 | 0.00 | 34 | 1010.0 |
| 20260830210043 | 82 | 267 | 2.0 | 8.0 | 0.00 | 0.00 | 0.00 | 33 | 1010.1 |
| 20260830204541 | 82 | 244 | 2.0 | 6.0 | 0.00 | 0.00 | 0.00 | 34 | 1010.1 |
| 20260830203039 | 82 | 254 | 2.0 | 7.0 | 0.00 | 0.00 | 0.00 | 32 | 1010.2 |
| 20260830201604 | 82 | 167 | 3.0 | 7.0 | 0.00 | 0.00 | 0.00 | 31 | 1010.3 |
| 20260830200038 | 81 | 167 | 2.0 | 6.0 | 0.00 | 0.00 | 0.00 | 31 | 1010.3 |